Location: Days
(41.3591°N, 106.7339°W)
Time: 20:07:01
(UTC+00:00)

Max Valier Satellite - Visible Passes

Search period start: 26 June 2022 00:00
Search period end: 06 July 2022 00:00
Orbit: 478 x 490 km, 97.2° (Epoch: 26 June)

Date Brightness Start Highest point End Pass type
(mag) Time Alt. Az. Time Alt. Az. Time Alt. Az.
27 Jun ? 03:47:36 10° SW 03:50:07 18° W 03:52:38 10° NW visible
28 Jun ? 03:22:12 10° SSW 03:25:32 35° W 03:28:53 10° NNW visible
01 Jul ? 03:42:55 10° SW 03:45:37 20° W 03:48:21 10° NW visible
02 Jul ? 03:17:36 10° S 03:21:00 40° W 03:24:26 10° NNW visible
04 Jul ? 04:04:25 10° WSW 04:05:39 11° W 04:06:54 10° WNW visible
05 Jul ? 03:38:02 10° SSW 03:40:56 22° W 03:43:50 10° NW visible
